SCP
0 0 0 0 0 0 0 0 0 0 0 0 0 0 0 0 0 0 0 0 0 0 0 0 0 0 2 6 5 3 2 2 2 1 1 1 0 1 2 2 1 1 1 1
0 0 0 0 0 0 0 0 0 0 0 0 0 0 0 0 0 0 0 0 0 0 0 0 0 -0 0 2 4 5 4 2 1 1 0 0 0 2 2 1 1 1 0 0
0 0 0 0 0 0 0 0 0 0 0 0 0 0 0 0 0 0 1 0 0 0 0 0 0 0 0 -0 3 7 3 3 2 1 -0 1 2 2 0 0 0 0 0 0
0 0 0 0 0 0 0 0 0 0 0 0 0 0 0 0 0 0 0 1 0 0 0 0 0 0 0 0 0 3 3 1 1 0 1 1 1 1 0 0 0 0 0 0
0 0 0 0 0 0 0 0 0 0 0 0 0 0 0 0 0 0 0 -0 -0 -0 0 0 0 0 0 0 0 0 1 2 0 0 1 1 0 0 0 0 0 0 0 0
0 0 0 0 0 0 0 0 0 0 0 0 0 0 0 0 0 0 0 0 -0 0 0 0 0 0 0 0 -0 0 0 0 0 1 1 0 0 0 0 0 0 0 0 0
0 0 0 0 0 0 0 0 0 0 0 0 0 0 0 0 0 0 0 0 0 0 0 0 0 0 0 1 1 0 0 0 0 1 2 0 0 0 0 0 0 0 0 0
0 0 0 0 0 0 0 0 0 0 0 0 0 0 0 0 0 0 0 0 0 0 0 0 0 0 -0 0 1 1 1 1 1 1 1 0 0 0 0 0 0 0 0 0
0 0 0 0 0 0 0 0 0 0 0 0 0 0 0 0 -0 0 0 0 0 0 0 -0 -0 -0 2 2 1 1 1 2 1 0 0 0 0 0 0 0 0 0 0 0
0 0 0 0 0 0 0 0 0 0 0 0 0 0 0 0 -0 0 0 0 0 0 -0 0 0 1 1 1 2 4 2 1 0 0 0 0 0 0 0 0 0 0 0 0
0 0 0 0 0 0 0 0 0 0 0 0 0 0 0 0 0 0 0 0 0 0 0 0 0 2 1 2 1 0 0 0 0 0 0 0 0 0 0 0 0 0 0 0
0 0 0 0 0 0 0 0 0 0 0 0 -0 0 0 0 0 0 0 0 0 0 0 0 0 0 2 3 0 0 0 0 0 0 0 0 0 0 0 0 0 0 0 0
0 0 0 0 0 0 0 0 0 0 0 0 0 0 0 0 0 0 0 0 0 0 0 0 0 -0 -0 0 0 0 0 0 0 0 0 0 0 0 0 0 0 0 0 0
0 0 -0 0 -0 0 0 0 0 0 -0 0 0 0 0 0 0 0 0 1 0 1 0 0 1 1 0 0 0 0 0 0 0 0 0 0 0 0 0 0 0 0 0 0
0 0 -0 0 0 0 0 0 0 0 -0 -0 0 0 0 0 1 1 1 0 0 0 0 0 0 0 0 0 0 0 0 0 0 0 0 0 0 0 0 0 0 0 0 0
0 0 -0 -0 0 0 0 0 0 0 0 -0 0 0 0 1 1 0 0 0 0 0 0 0 0 0 0 0 0 0 0 0 0 0 0 0 0 0 0 0 0 0 0 0
0 0 -0 0 0 0 -0 0 0 -0 -0 -0 0 0 0 0 0 0 0 0 0 0 0 0 0 0 0 0 0 0 0 0 0 0 0 0 0 0 0 0 0 0 0 0
0 0 -0 0 0 -0 0 0 0 0 0 -0 -0 -0 0 0 0 0 0 0 0 0 0 0 0 0 0 0 0 0 0 0 0 0 0 0 0 0 0 0 0 0 0 0
0 -0 -0 -0 0 0 0 0 0 0 0 0 -0 -0 -0 -0 0 0 -0 -0 0 0 0 0 0 0 0 0 0 0 0 0 0 0 0 0 0 0 0 0 0 0 0 0
0 0 0 0 0 -0 0 0 0 0 0 0 0 0 0 0 0 0 -0 -0 0 0 0 0 0 0 0 0 0 0 0 0 0 0 0 0 0 0 0 0 0 0 0 0
0 0 0 0 0 -0 0 0 0 0 0 0 0 0 -0 -0 -0 -0 -0 -0 0 0 0 0 0 0 0 0 0 0 0 0 0 0 0 0 0 0 0 0 0 0 0 0
-0 -0 0 0 -0 -0 0 0 0 0 -0 0 -0 0 0 0 -0 -0 -0 -0 -0 -0 -0 -0 -0 -0 0 0 0 0 0 0 0 0 0 0 0 0 0 0 0 0 0 0
0 0 0 0 0 -0 0 0 0 0 0 0 0 0 -0 -0 0 -0 -0 -0 -0 -0 0 -0 -0 -0 -0 -0 -0 0 0 0 0 0 0 0 0 0 0 0 0 0 0 0
0 0 0 0 0 0 0 0 -0 -0 0 0 -0 -0 -0 -0 -0 -0 -0 -0 0 0 -0 -0 -0 -0 -0 0 0 0 0 0 0 0 0 0 0 0 0 0 0 0 0 0
0 0 0 0 0 0 -0 0 -0 0 0 -0 0 0 -0 -0 -0 -0 -0 0 -0 0 0 0 0 0 0 0 0 0 0 0 0 0 0 0 0 0 0 0 0 0 0 0
-0 -0 -0 -0 -0 0 0 0 0 -0 -0 0 -0 -0 0 0 -0 -0 0 0 0 0 0 0 0 0 0 0 0 0 0 0 0 0 0 0 0 0 0 0 0 0 0 0
Wind_Speed_500mb
16 9 24 33 34 19 14 23 23 16 34 21 35 30 25 28 32 44 51 42 40 25 33 25 77 53 56 69 74 71 62 53 56 64 62 52 43 43 42 33 28 35 29 22
7 22 16 19 25 32 33 29 25 33 25 19 31 36 25 18 16 22 55 48 42 34 28 20 36 73 20 34 80 80 71 59 53 50 45 46 47 41 40 44 34 34 26 24
13 12 29 33 30 35 31 28 30 24 31 32 25 30 21 15 27 67 58 62 57 59 30 28 32 28 49 96 88 90 79 53 52 50 54 45 43 48 43 40 35 26 20 11
15 30 32 33 36 28 29 36 37 30 25 19 29 22 27 23 15 40 43 51 57 58 38 34 42 39 55 84 53 77 75 68 60 58 41 48 53 59 47 34 22 18 17 18
12 15 20 34 27 27 32 29 30 29 7 10 16 13 25 33 31 13 28 41 35 30 39 42 38 33 21 42 43 79 75 68 62 50 45 50 50 39 32 22 21 25 25 20
28 25 13 16 21 25 20 24 9 9 0 4 18 17 28 17 42 12 26 46 43 40 39 42 50 38 28 17 32 23 40 59 55 52 47 49 40 34 39 30 32 29 21 14
22 26 13 19 15 22 26 10 7 4 2 8 16 7 22 37 42 24 31 54 64 59 51 65 53 44 35 38 30 31 38 56 51 50 47 52 42 42 35 37 30 23 19 10
15 8 24 30 24 10 18 15 10 12 8 14 16 13 19 39 52 55 68 79 76 63 71 61 61 56 63 54 58 49 39 36 43 48 45 52 44 38 40 34 28 22 12 0
7 11 25 16 16 15 12 10 23 8 7 0 8 15 22 40 38 24 54 65 81 86 74 68 47 65 69 52 51 40 45 48 54 49 49 42 45 50 45 42 43 34 18 10
10 3 8 12 14 19 12 29 23 11 16 10 20 15 27 18 35 22 24 31 60 78 81 63 70 75 64 59 47 48 55 59 50 40 45 51 52 44 46 42 35 25 17 9
11 7 8 15 12 17 6 5 5 4 4 4 2 14 14 31 21 24 39 61 71 51 68 65 66 73 72 64 65 60 58 46 42 57 51 49 43 41 40 33 25 19 11 12
3 4 9 14 14 15 12 14 11 7 1 4 11 10 19 9 20 18 32 57 64 52 27 15 62 80 66 67 61 60 55 48 64 48 43 42 37 32 30 22 15 10 14 19
5 6 4 4 11 11 6 9 11 15 4 4 5 9 12 12 9 29 40 54 65 48 36 41 72 76 80 64 67 64 55 61 54 48 42 35 30 22 16 12 9 13 18 24
6 8 10 14 10 8 12 24 14 13 9 5 6 21 6 8 4 23 73 80 77 67 50 43 54 61 86 80 71 60 58 54 52 49 41 34 20 13 11 10 13 20 27 33
8 7 10 13 26 30 31 20 14 12 20 5 11 18 10 15 23 44 65 77 87 85 88 82 81 86 85 77 70 64 62 55 48 41 34 23 14 7 9 15 21 27 34 38
11 7 12 8 38 38 28 24 19 25 33 34 9 17 5 51 73 64 59 73 72 84 85 81 80 79 81 78 79 74 63 55 47 39 34 23 16 11 16 23 28 32 37 37
9 6 10 11 14 10 14 16 14 17 45 40 7 7 12 32 44 51 50 70 73 73 75 76 72 66 63 67 67 66 64 59 48 42 32 22 17 18 21 25 30 33 36 34
3 7 7 9 15 9 6 9 16 12 38 39 35 33 33 43 59 64 42 56 65 72 77 75 69 69 61 55 59 63 60 52 40 28 19 12 13 18 21 27 30 31 33 30
17 10 2 6 8 6 6 14 15 6 16 35 46 42 50 74 68 46 32 48 57 58 57 59 57 53 46 43 40 38 34 27 20 12 5 9 13 15 20 24 28 28 24 21
23 21 11 10 9 5 10 17 29 6 14 9 34 28 41 47 11 12 43 56 55 48 44 45 48 50 42 32 27 28 28 19 13 8 3 9 10 13 17 24 26 27 21 24
11 13 20 14 4 19 18 8 17 9 18 34 31 37 38 8 16 62 56 58 58 55 52 49 43 29 22 17 14 17 16 14 13 6 5 12 11 14 20 24 29 24 24 24
8 15 9 9 8 10 16 6 11 11 48 62 56 57 44 53 73 65 65 61 56 44 40 36 37 36 22 8 10 9 15 15 11 8 9 10 14 14 14 20 22 13 18 23
7 5 8 6 12 24 16 27 27 78 73 52 62 66 73 77 66 66 69 62 51 47 45 31 32 33 23 15 15 17 20 16 12 13 13 15 17 15 12 16 18 20 24 29
7 13 7 8 12 14 31 38 36 38 61 58 76 82 79 79 73 77 69 61 56 52 45 25 23 25 25 20 20 20 18 16 15 16 17 16 18 21 22 22 22 27 37 35
7 14 11 8 9 8 29 22 71 54 69 80 73 75 81 84 72 64 64 62 60 52 41 27 22 22 22 22 22 21 21 20 21 20 20 19 23 25 25 26 27 27 30 32
6 5 5 5 14 14 29 74 86 86 76 79 87 75 70 76 76 70 66 60 56 51 39 28 23 18 20 18 20 21 21 22 22 23 26 26 27 27 23 19 16 18 20 25
Wind_Direction_500mb
210 197 209 220 222 246 255 254 231 253 240 195 231 246 231 223 236 251 163 167 173 157 162 198 198 225 217 193 180 182 178 186 181 182 183 183 176 167 170 179 190 193 208 215
289 233 231 231 226 237 245 244 244 245 244 203 221 248 241 207 229 224 138 157 171 158 156 154 180 236 318 203 195 196 195 181 180 182 181 177 159 168 176 181 197 215 224 247
226 239 229 232 220 226 239 245 248 226 241 229 213 249 230 235 219 104 117 130 137 155 153 173 176 225 207 300 209 198 189 179 171 175 178 183 175 176 179 190 203 217 249 188
234 251 217 234 221 213 229 237 244 261 221 219 204 236 232 236 255 125 144 148 154 149 148 160 221 206 193 256 283 204 181 172 165 161 177 180 176 176 185 191 207 193 158 132
226 240 254 227 223 222 238 245 240 255 249 259 225 221 221 234 239 156 138 158 158 180 171 152 162 144 115 225 292 201 188 163 164 173 176 171 174 184 188 194 177 151 134 118
273 267 219 253 236 239 267 247 303 264 161 307 253 213 236 233 236 140 136 158 168 173 159 156 148 185 188 165 232 214 151 164 164 178 184 194 195 193 191 172 154 135 131 123
248 243 243 225 244 260 251 69 17 305 138 203 307 2 241 223 253 162 161 164 167 165 162 143 143 136 165 151 208 211 181 173 172 172 177 185 187 193 184 159 152 152 146 121
220 178 190 208 227 230 214 132 136 184 170 229 242 203 243 239 245 165 174 168 165 167 170 173 170 149 181 175 191 188 191 171 175 176 181 187 170 164 147 145 142 144 137 46
290 200 173 193 193 187 185 144 180 250 96 166 191 245 297 282 256 202 170 166 167 167 174 166 183 177 181 181 175 169 165 173 177 180 170 161 151 149 145 151 152 157 174 223
296 326 198 214 184 244 224 195 193 213 174 177 208 215 220 217 223 185 151 174 180 184 188 183 182 178 182 184 173 166 173 175 172 159 160 151 153 157 163 165 163 171 189 223
243 242 204 179 197 239 274 183 80 217 184 70 182 228 240 229 185 162 151 186 187 178 198 188 163 172 179 176 171 169 174 168 148 151 150 154 161 170 174 172 169 186 222 270
287 305 167 217 194 228 250 292 121 130 3 234 164 279 284 293 163 134 133 125 166 177 212 207 184 180 175 178 176 172 163 154 146 145 149 157 161 165 169 174 187 219 264 292
324 293 135 257 298 303 275 268 140 112 81 30 61 274 325 130 161 136 144 137 140 151 170 246 179 177 181 170 162 149 149 144 146 149 148 150 158 166 178 196 228 270 288 298
122 246 168 194 216 214 252 256 167 109 84 45 258 295 91 174 202 79 72 82 84 92 122 178 165 134 131 136 139 136 136 145 151 150 151 150 157 176 206 242 278 294 298 303
162 276 351 212 193 214 237 232 208 128 120 65 292 298 295 357 81 90 89 83 76 72 76 89 111 120 126 127 131 131 138 146 152 157 161 159 170 189 252 273 282 292 302 309
21 312 0 288 203 218 221 226 241 162 147 203 292 264 38 68 68 71 85 82 80 85 89 91 103 113 121 128 130 141 144 149 147 142 145 154 167 219 261 277 289 300 305 311
358 91 18 293 319 304 211 208 237 165 171 148 97 249 87 68 73 60 69 91 96 96 97 109 110 112 118 124 132 130 132 136 143 146 152 175 194 235 264 284 300 304 310 317
203 73 28 282 331 282 244 200 208 198 139 138 106 89 86 83 77 80 67 90 100 106 113 112 112 119 126 133 134 139 143 144 152 156 163 195 246 274 293 299 305 309 313 321
147 114 72 343 306 272 337 50 51 46 74 116 121 109 108 101 87 84 124 114 112 114 116 118 118 116 127 134 139 146 144 153 154 150 185 260 283 299 301 313 323 327 336 346
78 92 96 345 292 243 245 4 21 154 100 167 122 137 146 148 120 130 138 131 119 117 122 129 135 130 125 127 137 137 136 140 127 126 240 293 314 314 330 342 346 356 7 16
115 133 185 194 82 291 266 330 340 92 183 180 162 150 143 102 135 144 142 131 126 124 126 130 135 135 101 95 106 117 108 103 114 106 344 339 352 348 360 10 7 25 13 360
192 160 190 169 124 278 226 64 94 181 151 159 172 161 143 126 129 147 146 141 137 129 123 124 127 120 124 137 104 106 102 94 83 61 36 5 7 6 16 27 25 12 1 356
254 56 288 144 179 200 194 76 292 172 158 156 141 148 148 137 139 145 140 140 135 128 120 128 132 136 140 158 132 114 94 86 76 59 55 33 26 35 30 17 21 1 4 5
286 337 355 334 318 179 140 151 195 193 156 159 144 139 141 136 145 140 137 135 129 128 137 140 134 124 120 112 99 87 87 80 68 60 54 43 32 51 56 46 33 20 14 16
231 325 316 310 69 242 230 155 166 158 135 128 132 138 138 137 139 140 139 137 137 139 139 143 131 120 106 96 90 86 78 72 66 64 65 57 49 49 55 48 34 25 21 18
167 352 328 267 33 315 283 137 135 131 132 134 133 133 135 137 133 135 132 136 140 142 147 148 146 134 112 108 101 91 81 75 74 72 66 60 56 59 49 38 31 15 21 21
Wind_Speed_850mb
16 9 24 33 34 19 14 23 23 16 34 21 35 30 25 28 32 44 51 42 40 25 33 25 77 53 56 69 74 71 62 53 56 64 62 52 43 43 42 33 28 35 29 22
7 22 16 19 25 32 33 29 25 33 25 19 31 36 25 18 16 22 55 48 42 34 28 20 36 73 20 34 80 80 71 59 53 50 45 46 47 41 40 44 34 34 26 24
13 12 29 33 30 35 31 28 30 24 31 32 25 30 21 15 27 67 58 62 57 59 30 28 32 28 49 96 88 90 79 53 52 50 54 45 43 48 43 40 35 26 20 11
15 30 32 33 36 28 29 36 37 30 25 19 29 22 27 23 15 40 43 51 57 58 38 34 42 39 55 84 53 77 75 68 60 58 41 48 53 59 47 34 22 18 17 18
12 15 20 34 27 27 32 29 30 29 7 10 16 13 25 33 31 13 28 41 35 30 39 42 38 33 21 42 43 79 75 68 62 50 45 50 50 39 32 22 21 25 25 20
28 25 13 16 21 25 20 24 9 9 0 4 18 17 28 17 42 12 26 46 43 40 39 42 50 38 28 17 32 23 40 59 55 52 47 49 40 34 39 30 32 29 21 14
22 26 13 19 15 22 26 10 7 4 2 8 16 7 22 37 42 24 31 54 64 59 51 65 53 44 35 38 30 31 38 56 51 50 47 52 42 42 35 37 30 23 19 10
15 8 24 30 24 10 18 15 10 12 8 14 16 13 19 39 52 55 68 79 76 63 71 61 61 56 63 54 58 49 39 36 43 48 45 52 44 38 40 34 28 22 12 0
7 11 25 16 16 15 12 10 23 8 7 0 8 15 22 40 38 24 54 65 81 86 74 68 47 65 69 52 51 40 45 48 54 49 49 42 45 50 45 42 43 34 18 10
10 3 8 12 14 19 12 29 23 11 16 10 20 15 27 18 35 22 24 31 60 78 81 63 70 75 64 59 47 48 55 59 50 40 45 51 52 44 46 42 35 25 17 9
11 7 8 15 12 17 6 5 5 4 4 4 2 14 14 31 21 24 39 61 71 51 68 65 66 73 72 64 65 60 58 46 42 57 51 49 43 41 40 33 25 19 11 12
3 4 9 14 14 15 12 14 11 7 1 4 11 10 19 9 20 18 32 57 64 52 27 15 62 80 66 67 61 60 55 48 64 48 43 42 37 32 30 22 15 10 14 19
5 6 4 4 11 11 6 9 11 15 4 4 5 9 12 12 9 29 40 54 65 48 36 41 72 76 80 64 67 64 55 61 54 48 42 35 30 22 16 12 9 13 18 24
6 8 10 14 10 8 12 24 14 13 9 5 6 21 6 8 4 23 73 80 77 67 50 43 54 61 86 80 71 60 58 54 52 49 41 34 20 13 11 10 13 20 27 33
8 7 10 13 26 30 31 20 14 12 20 5 11 18 10 15 23 44 65 77 87 85 88 82 81 86 85 77 70 64 62 55 48 41 34 23 14 7 9 15 21 27 34 38
11 7 12 8 38 38 28 24 19 25 33 34 9 17 5 51 73 64 59 73 72 84 85 81 80 79 81 78 79 74 63 55 47 39 34 23 16 11 16 23 28 32 37 37
9 6 10 11 14 10 14 16 14 17 45 40 7 7 12 32 44 51 50 70 73 73 75 76 72 66 63 67 67 66 64 59 48 42 32 22 17 18 21 25 30 33 36 34
3 7 7 9 15 9 6 9 16 12 38 39 35 33 33 43 59 64 42 56 65 72 77 75 69 69 61 55 59 63 60 52 40 28 19 12 13 18 21 27 30 31 33 30
17 10 2 6 8 6 6 14 15 6 16 35 46 42 50 74 68 46 32 48 57 58 57 59 57 53 46 43 40 38 34 27 20 12 5 9 13 15 20 24 28 28 24 21
23 21 11 10 9 5 10 17 29 6 14 9 34 28 41 47 11 12 43 56 55 48 44 45 48 50 42 32 27 28 28 19 13 8 3 9 10 13 17 24 26 27 21 24
11 13 20 14 4 19 18 8 17 9 18 34 31 37 38 8 16 62 56 58 58 55 52 49 43 29 22 17 14 17 16 14 13 6 5 12 11 14 20 24 29 24 24 24
8 15 9 9 8 10 16 6 11 11 48 62 56 57 44 53 73 65 65 61 56 44 40 36 37 36 22 8 10 9 15 15 11 8 9 10 14 14 14 20 22 13 18 23
7 5 8 6 12 24 16 27 27 78 73 52 62 66 73 77 66 66 69 62 51 47 45 31 32 33 23 15 15 17 20 16 12 13 13 15 17 15 12 16 18 20 24 29
7 13 7 8 12 14 31 38 36 38 61 58 76 82 79 79 73 77 69 61 56 52 45 25 23 25 25 20 20 20 18 16 15 16 17 16 18 21 22 22 22 27 37 35
7 14 11 8 9 8 29 22 71 54 69 80 73 75 81 84 72 64 64 62 60 52 41 27 22 22 22 22 22 21 21 20 21 20 20 19 23 25 25 26 27 27 30 32
6 5 5 5 14 14 29 74 86 86 76 79 87 75 70 76 76 70 66 60 56 51 39 28 23 18 20 18 20 21 21 22 22 23 26 26 27 27 23 19 16 18 20 25
Wind_Direction_850mb
210 197 209 220 222 246 255 254 231 253 240 195 231 246 231 223 236 251 163 167 173 157 162 198 198 225 217 193 180 182 178 186 181 182 183 183 176 167 170 179 190 193 208 215
289 233 231 231 226 237 245 244 244 245 244 203 221 248 241 207 229 224 138 157 171 158 156 154 180 236 318 203 195 196 195 181 180 182 181 177 159 168 176 181 197 215 224 247
226 239 229 232 220 226 239 245 248 226 241 229 213 249 230 235 219 104 117 130 137 155 153 173 176 225 207 300 209 198 189 179 171 175 178 183 175 176 179 190 203 217 249 188
234 251 217 234 221 213 229 237 244 261 221 219 204 236 232 236 255 125 144 148 154 149 148 160 221 206 193 256 283 204 181 172 165 161 177 180 176 176 185 191 207 193 158 132
226 240 254 227 223 222 238 245 240 255 249 259 225 221 221 234 239 156 138 158 158 180 171 152 162 144 115 225 292 201 188 163 164 173 176 171 174 184 188 194 177 151 134 118
273 267 219 253 236 239 267 247 303 264 161 307 253 213 236 233 236 140 136 158 168 173 159 156 148 185 188 165 232 214 151 164 164 178 184 194 195 193 191 172 154 135 131 123
248 243 243 225 244 260 251 69 17 305 138 203 307 2 241 223 253 162 161 164 167 165 162 143 143 136 165 151 208 211 181 173 172 172 177 185 187 193 184 159 152 152 146 121
220 178 190 208 227 230 214 132 136 184 170 229 242 203 243 239 245 165 174 168 165 167 170 173 170 149 181 175 191 188 191 171 175 176 181 187 170 164 147 145 142 144 137 46
290 200 173 193 193 187 185 144 180 250 96 166 191 245 297 282 256 202 170 166 167 167 174 166 183 177 181 181 175 169 165 173 177 180 170 161 151 149 145 151 152 157 174 223
296 326 198 214 184 244 224 195 193 213 174 177 208 215 220 217 223 185 151 174 180 184 188 183 182 178 182 184 173 166 173 175 172 159 160 151 153 157 163 165 163 171 189 223
243 242 204 179 197 239 274 183 80 217 184 70 182 228 240 229 185 162 151 186 187 178 198 188 163 172 179 176 171 169 174 168 148 151 150 154 161 170 174 172 169 186 222 270
287 305 167 217 194 228 250 292 121 130 3 234 164 279 284 293 163 134 133 125 166 177 212 207 184 180 175 178 176 172 163 154 146 145 149 157 161 165 169 174 187 219 264 292
324 293 135 257 298 303 275 268 140 112 81 30 61 274 325 130 161 136 144 137 140 151 170 246 179 177 181 170 162 149 149 144 146 149 148 150 158 166 178 196 228 270 288 298
122 246 168 194 216 214 252 256 167 109 84 45 258 295 91 174 202 79 72 82 84 92 122 178 165 134 131 136 139 136 136 145 151 150 151 150 157 176 206 242 278 294 298 303
162 276 351 212 193 214 237 232 208 128 120 65 292 298 295 357 81 90 89 83 76 72 76 89 111 120 126 127 131 131 138 146 152 157 161 159 170 189 252 273 282 292 302 309
21 312 0 288 203 218 221 226 241 162 147 203 292 264 38 68 68 71 85 82 80 85 89 91 103 113 121 128 130 141 144 149 147 142 145 154 167 219 261 277 289 300 305 311
358 91 18 293 319 304 211 208 237 165 171 148 97 249 87 68 73 60 69 91 96 96 97 109 110 112 118 124 132 130 132 136 143 146 152 175 194 235 264 284 300 304 310 317
203 73 28 282 331 282 244 200 208 198 139 138 106 89 86 83 77 80 67 90 100 106 113 112 112 119 126 133 134 139 143 144 152 156 163 195 246 274 293 299 305 309 313 321
147 114 72 343 306 272 337 50 51 46 74 116 121 109 108 101 87 84 124 114 112 114 116 118 118 116 127 134 139 146 144 153 154 150 185 260 283 299 301 313 323 327 336 346
78 92 96 345 292 243 245 4 21 154 100 167 122 137 146 148 120 130 138 131 119 117 122 129 135 130 125 127 137 137 136 140 127 126 240 293 314 314 330 342 346 356 7 16
115 133 185 194 82 291 266 330 340 92 183 180 162 150 143 102 135 144 142 131 126 124 126 130 135 135 101 95 106 117 108 103 114 106 344 339 352 348 360 10 7 25 13 360
192 160 190 169 124 278 226 64 94 181 151 159 172 161 143 126 129 147 146 141 137 129 123 124 127 120 124 137 104 106 102 94 83 61 36 5 7 6 16 27 25 12 1 356
254 56 288 144 179 200 194 76 292 172 158 156 141 148 148 137 139 145 140 140 135 128 120 128 132 136 140 158 132 114 94 86 76 59 55 33 26 35 30 17 21 1 4 5
286 337 355 334 318 179 140 151 195 193 156 159 144 139 141 136 145 140 137 135 129 128 137 140 134 124 120 112 99 87 87 80 68 60 54 43 32 51 56 46 33 20 14 16
231 325 316 310 69 242 230 155 166 158 135 128 132 138 138 137 139 140 139 137 137 139 139 143 131 120 106 96 90 86 78 72 66 64 65 57 49 49 55 48 34 25 21 18
167 352 328 267 33 315 283 137 135 131 132 134 133 133 135 137 133 135 132 136 140 142 147 148 146 134 112 108 101 91 81 75 74 72 66 60 56 59 49 38 31 15 21 21